Location: Ailingen
(47.6833°N, 9.5000°E)
Time: 05:52:42
(UTC+00:00)

Nadezhda 4 Rocket - Pass Details

Date: 18 November 2025
Orbit: 949 x 991 km, 82.9° (Epoch: 04 December)

Event Time Altitude Azimuth Distance (km) Brightness Sun altitude
Rises 16:50:16 0° 355° (N) 3,705 6.9 -11.4°
Reaches altitude 10° 16:52:57 10° 2° (N) 2,748 6.2 -11.9°
Maximum altitude 16:58:57 44° 73° (ENE) 1,325 4.3 -12.9°
Drops below altitude 10° 17:04:50 10° 145° (SE) 2,704 6.1 -13.8°
Sets 17:07:27 0° 152° (SSE) 3,640 6.8 -14.2°
